Retour au catalogue

COSMOS 886 DEB

ActifLEO
NORAD 9654·DEBRIS·🇷🇺 Russia

Lancé Dec 27, 1976 depuis Baikonur Cosmodrome

Loading…

Prochains Passages (prochaines 24 heures)

TLE

FraisSource: Space-Track

Époque: Sep 14, 2026, 06:14 UTC

1 09654U 76126L   26257.26029843  .00002328  00000-0  90809-3 0  9996
2 09654  65.7686 217.1950 0684991  59.8901 306.8244 13.47216420369496

Suivez COSMOS 886 DEB en temps réel avec AllMySat

Download on the App Store